| time (UTC) | temp F | wind direction | speed MPH | gust MPH | rain 1hr in | rain 24hr in | rain mn in | humidity % | barometer mb |
| 20260507194101 | 61 | 165 | 1.0 | 1.0 | 0.00 | 0.00 | 0.00 | 78 | 1009.0 |
| 20260507193600 | 61 | 161 | 0.0 | 1.0 | 0.00 | 0.00 | 0.00 | 78 | 1009.0 |
| 20260507193101 | 61 | 161 | 1.0 | 1.0 | 0.00 | 0.00 | 0.00 | 78 | 1008.9 |
| 20260507193034 | 61 | 196 | 1.0 | 1.0 | 0.00 | 0.00 | 0.00 | 96 | 1009.4 |
| 20260507192600 | 61 | 223 | 1.0 | 1.0 | 0.00 | 0.00 | 0.00 | 77 | 1009.0 |
| 20260507192103 | 62 | 223 | 0.0 | 1.0 | 0.00 | 0.00 | 0.00 | 77 | 1009.0 |
| 20260507191600 | 62 | 223 | 1.0 | 1.0 | 0.00 | 0.00 | 0.00 | 76 | 1009.0 |
| 20260507191537 | 63 | 0 | 0.0 | 1.0 | 0.00 | 0.00 | 0.00 | 96 | 1009.4 |
| 20260507191100 | 62 | 89 | 1.0 | 1.0 | 0.00 | 0.00 | 0.00 | 76 | 1008.9 |
| 20260507190559 | 62 | 223 | 0.0 | 1.0 | 0.00 | 0.00 | 0.00 | 75 | 1009.1 |
| 20260507190101 | 62 | 45 | 0.0 | 1.0 | 0.00 | 0.00 | 0.00 | 74 | 1009.0 |
| 20260507190039 | 63 | 0.0 | 1.0 | 0.00 | 0.00 | 0.00 | 73 | 1009.4 | |
| 20260507185559 | 63 | 28 | 0.0 | 2.0 | 0.00 | 0.00 | 0.00 | 74 | 1009.0 |
| 20260507185101 | 63 | 324 | 1.0 | 2.0 | 0.00 | 0.00 | 0.00 | 73 | 1009.0 |
| 20260507184819 | 63 | 28 | 0.0 | 1.0 | 0.00 | 0.00 | 0.00 | 73 | 1009.1 |
| 20260507184543 | 63 | 0 | 0.0 | 1.0 | 0.00 | 0.00 | 0.00 | 71 | 1009.5 |
| 20260507184100 | 63 | 135 | 0.0 | 1.0 | 0.00 | 0.00 | 0.00 | 72 | 1009.0 |
| 20260507183559 | 63 | 89 | 0.0 | 2.0 | 0.00 | 0.00 | 0.00 | 72 | 1008.9 |
| 20260507183100 | 64 | 135 | 0.0 | 2.0 | 0.00 | 0.00 | 0.00 | 72 | 1009.1 |
| 20260507183045 | 63 | 0 | 0.0 | 2.0 | 0.00 | 0.00 | 0.00 | 71 | 1009.6 |
| 20260507182558 | 64 | 1 | 1.0 | 3.0 | 0.00 | 0.00 | 0.00 | 71 | 1009.0 |
| 20260507182323 | 64 | 337 | 1.0 | 3.0 | 0.00 | 0.00 | 0.00 | 71 | 1009.0 |
| 20260507181559 | 64 | 314 | 1.0 | 3.0 | 0.00 | 0.00 | 0.00 | 70 | 1009.1 |
| 20260507181540 | 64 | 309 | 1.0 | 3.0 | 0.00 | 0.00 | 0.00 | 90 | 1009.5 |
| 20260507181059 | 64 | 330 | 2.0 | 4.0 | 0.00 | 0.00 | 0.00 | 70 | 1009.0 |
| 20260507180819 | 64 | 269 | 2.0 | 4.0 | 0.00 | 0.00 | 0.00 | 70 | 1008.9 |
| 20260507180059 | 65 | 331 | 1.0 | 5.0 | 0.00 | 0.00 | 0.00 | 70 | 1008.9 |
| 20260507180038 | 64 | 303 | 1.0 | 2.0 | 0.00 | 0.00 | 0.00 | 69 | 1009.4 |
| 20260507175558 | 65 | 314 | 2.0 | 5.0 | 0.00 | 0.00 | 0.00 | 70 | 1008.9 |
| 20260507175317 | 65 | 230 | 2.0 | 4.0 | 0.00 | 0.00 | 0.00 | 71 | 1008.9 |
| 20260507174600 | 65 | 283 | 2.0 | 5.0 | 0.00 | 0.00 | 0.00 | 70 | 1008.9 |
| 20260507174535 | 65 | 316 | 2.0 | 3.0 | 0.00 | 0.00 | 0.00 | 69 | 1009.4 |
| 20260507174059 | 65 | 223 | 3.0 | 7.0 | 0.00 | 0.00 | 0.00 | 69 | 1008.9 |
| 20260507173811 | 65 | 310 | 3.0 | 10.0 | 0.00 | 0.00 | 0.00 | 69 | 1008.8 |
| 20260507173756 | 65 | 338 | 4.0 | 7.0 | 0.00 | 0.00 | 0.00 | 69 | 1008.8 |
| 20260507173040 | 65 | 254 | 1.0 | 6.0 | 0.00 | 0.00 | 0.00 | 67 | 1009.2 |
| 20260507172820 | 66 | 45 | 5.0 | 10.0 | 0.00 | 0.00 | 0.00 | 68 | 1008.7 |
| 20260507172058 | 66 | 310 | 2.0 | 6.0 | 0.00 | 0.00 | 0.00 | 68 | 1008.6 |
| 20260507171557 | 66 | 289 | 3.0 | 6.0 | 0.00 | 0.00 | 0.00 | 67 | 1008.5 |
| 20260507171542 | 65 | 287 | 3.0 | 6.0 | 0.00 | 0.00 | 0.00 | 66 | 1008.9 |
| 20260507171058 | 66 | 347 | 2.0 | 6.0 | 0.00 | 0.00 | 0.00 | 67 | 1008.4 |
| 20260507171042 | 66 | 330 | 3.0 | 5.0 | 0.00 | 0.00 | 0.00 | 67 | 1008.4 |
| 20260507170320 | 66 | 251 | 3.0 | 7.0 | 0.00 | 0.00 | 0.00 | 67 | 1008.4 |
| 20260507170038 | 65 | 82 | 3.0 | 3.0 | 0.00 | 0.00 | 0.00 | 66 | 1008.9 |
| 20260507165557 | 66 | 354 | 4.0 | 7.0 | 0.00 | 0.00 | 0.00 | 68 | 1008.5 |
| 20260507165058 | 66 | 241 | 2.0 | 5.0 | 0.00 | 0.00 | 0.00 | 68 | 1008.5 |
| 20260507164819 | 66 | 327 | 2.0 | 5.0 | 0.00 | 0.00 | 0.00 | 69 | 1008.6 |
| 20260507164541 | 65 | 43 | 2.0 | 3.0 | 0.00 | 0.00 | 0.00 | 69 | 1009.1 |
| 20260507164058 | 65 | 327 | 2.0 | 4.0 | 0.00 | 0.00 | 0.00 | 71 | 1008.7 |
| 20260507163557 | 65 | 269 | 2.0 | 3.0 | 0.00 | 0.00 | 0.00 | 70 | 1008.9 |
| 20260507163057 | 65 | 28 | 1.0 | 3.0 | 0.00 | 0.00 | 0.00 | 69 | 1009.0 |
| 20260507163042 | 63 | 56 | 1.0 | 2.0 | 0.00 | 0.00 | 0.00 | 89 | 1009.5 |
| 20260507162555 | 65 | 28 | 2.0 | 4.0 | 0.00 | 0.00 | 0.00 | 69 | 1009.1 |
| 20260507162057 | 65 | 45 | 1.0 | 5.0 | 0.00 | 0.00 | 0.00 | 69 | 1009.0 |
| 20260507161556 | 65 | 13 | 2.0 | 5.0 | 0.00 | 0.00 | 0.00 | 70 | 1009.1 |
| 20260507161541 | 63 | 9 | 1.0 | 3.0 | 0.00 | 0.00 | 0.00 | 70 | 1009.6 |
| 20260507161057 | 64 | 251 | 2.0 | 5.0 | 0.00 | 0.00 | 0.00 | 70 | 1009.2 |
| 20260507160824 | 64 | 320 | 2.0 | 3.0 | 0.00 | 0.00 | 0.00 | 70 | 1009.2 |
| 20260507160057 | 64 | 178 | 1.0 | 3.0 | 0.00 | 0.00 | 0.00 | 71 | 1009.4 |
| 20260507160042 | 63 | 120 | 1.0 | 3.0 | 0.00 | 0.00 | 0.00 | 69 | 1009.9 |
| 20260507155559 | 63 | 223 | 1.0 | 3.0 | 0.00 | 0.00 | 0.00 | 70 | 1009.4 |
| 20260507155323 | 64 | 117 | 2.0 | 3.0 | 0.00 | 0.00 | 0.00 | 69 | 1009.4 |
| 20260507154815 | 64 | 314 | 2.0 | 4.0 | 0.00 | 0.00 | 0.00 | 71 | 1009.5 |
| 20260507154758 | 64 | 213 | 2.0 | 4.0 | 0.00 | 0.00 | 0.00 | 69 | 1009.4 |
| 20260507154538 | 63 | 9 | 1.0 | 2.0 | 0.00 | 0.00 | 0.00 | 69 | 1009.9 |
| 20260507153555 | 64 | 45 | 2.0 | 4.0 | 0.00 | 0.00 | 0.00 | 72 | 1009.4 |
| 20260507153056 | 64 | 289 | 2.0 | 5.0 | 0.00 | 0.00 | 0.00 | 70 | 1009.3 |
| 20260507153038 | 63 | 271 | 1.0 | 6.0 | 0.00 | 0.00 | 0.00 | 71 | 1009.8 |
| 20260507152554 | 64 | 1 | 3.0 | 7.0 | 0.00 | 0.00 | 0.00 | 70 | 1009.3 |
| 20260507152055 | 64 | 327 | 3.0 | 7.0 | 0.00 | 0.00 | 0.00 | 73 | 1009.2 |
| 20260507151818 | 63 | 344 | 3.0 | 6.0 | 0.00 | 0.00 | 0.00 | 72 | 1009.1 |
| 20260507151538 | 62 | 227 | 5.0 | 6.0 | 0.00 | 0.00 | 0.00 | 74 | 1009.5 |
| 20260507151056 | 63 | 334 | 3.0 | 6.0 | 0.00 | 0.00 | 0.00 | 74 | 1009.1 |
| 20260507150821 | 62 | 341 | 2.0 | 5.0 | 0.00 | 0.00 | 0.00 | 74 | 1009.1 |
| 20260507150055 | 62 | 237 | 2.0 | 6.0 | 0.00 | 0.00 | 0.00 | 75 | 1009.1 |
| 20260507150040 | 61 | 296 | 2.0 | 5.0 | 0.00 | 0.00 | 0.00 | 78 | 1009.6 |
| 20260507145554 | 62 | 302 | 4.0 | 6.0 | 0.00 | 0.00 | 0.00 | 75 | 1009.2 |
| 20260507145055 | 62 | 314 | 3.0 | 6.0 | 0.00 | 0.00 | 0.00 | 77 | 1009.2 |
| 20260507144554 | 61 | 265 | 3.0 | 6.0 | 0.00 | 0.00 | 0.00 | 79 | 1009.2 |
| 20260507144539 | 0 | 190 | 2.0 | 5.0 | 0.00 | 0.00 | 0.00 | 78 | 1009.7 |
| 20260507144055 | 61 | 302 | 2.0 | 6.0 | 0.00 | 0.00 | 0.00 | 78 | 1009.1 |
| 20260507143554 | 60 | 348 | 4.0 | 6.0 | 0.00 | 0.00 | 0.00 | 78 | 1009.2 |
| 20260507143056 | 61 | 1.0 | 3.0 | 0.00 | 0.00 | 0.00 | 76 | 1009.9 | |
| 20260507142553 | 61 | 331 | 2.0 | 4.0 | 0.00 | 0.00 | 0.00 | 77 | 1009.7 |
| 20260507142055 | 61 | 324 | 1.0 | 3.0 | 0.00 | 0.00 | 0.00 | 76 | 1010.0 |
| 20260507141553 | 61 | 0 | 0.0 | 2.0 | 0.00 | 0.00 | 0.00 | 95 | 1010.7 |
| 20260507141055 | 62 | 314 | 1.0 | 3.0 | 0.00 | 0.00 | 0.00 | 75 | 1010.1 |
| 20260507140552 | 62 | 269 | 1.0 | 6.0 | 0.00 | 0.00 | 0.00 | 75 | 1010.1 |
| 20260507140318 | 62 | 344 | 3.0 | 6.0 | 0.00 | 0.00 | 0.00 | 75 | 1010.1 |
| 20260507140037 | 62 | 277 | 2.0 | 3.0 | 0.00 | 0.00 | 0.00 | 75 | 1010.7 |
| 20260507135553 | 62 | 334 | 2.0 | 6.0 | 0.00 | 0.00 | 0.00 | 75 | 1010.0 |
| 20260507135053 | 62 | 320 | 4.0 | 7.0 | 0.00 | 0.00 | 0.00 | 74 | 1009.8 |
| 20260507134813 | 62 | 168 | 3.0 | 7.0 | 0.00 | 0.00 | 0.00 | 74 | 1009.9 |
| 20260507134542 | 62 | 277 | 3.0 | 5.0 | 0.00 | 0.00 | 0.00 | 75 | 1010.4 |
| 20260507134053 | 62 | 89 | 3.0 | 9.0 | 0.00 | 0.00 | 0.00 | 75 | 1009.9 |
| 20260507133553 | 62 | 213 | 3.0 | 9.0 | 0.00 | 0.00 | 0.00 | 76 | 1009.8 |
| 20260507133317 | 62 | 319 | 3.0 | 9.0 | 0.00 | 0.00 | 0.00 | 74 | 1009.7 |
| 20260507133041 | 62 | 305 | 4.0 | 5.0 | 0.00 | 0.00 | 0.00 | 75 | 1010.2 |
| 20260507132552 | 63 | 314 | 3.0 | 10.0 | 0.00 | 0.00 | 0.00 | 75 | 1009.7 |
| 20260507132053 | 63 | 272 | 4.0 | 12.0 | 0.00 | 0.00 | 0.00 | 74 | 1009.6 |
| 20260507131552 | 63 | 344 | 5.0 | 12.0 | 0.00 | 0.00 | 0.00 | 76 | 1009.7 |
| 20260507131549 | 62 | 305 | 5.0 | 9.0 | 0.00 | 0.00 | 0.00 | 75 | 1010.1 |
| 20260507131053 | 63 | 330 | 6.0 | 13.0 | 0.00 | 0.00 | 0.00 | 75 | 1009.5 |
| 20260507130551 | 63 | 327 | 4.0 | 13.0 | 0.00 | 0.00 | 0.00 | 75 | 1009.6 |
| 20260507130314 | 63 | 269 | 5.0 | 9.0 | 0.00 | 0.00 | 0.00 | 73 | 1009.7 |
| 20260507130043 | 62 | 265 | 2.0 | 6.0 | 0.00 | 0.00 | 0.00 | 75 | 1010.1 |
| 20260507125551 | 63 | 336 | 4.0 | 9.0 | 0.00 | 0.00 | 0.00 | 75 | 1009.7 |
| 20260507125052 | 63 | 234 | 5.0 | 12.0 | 0.00 | 0.00 | 0.00 | 76 | 1009.7 |
| 20260507124551 | 63 | 326 | 6.0 | 12.0 | 0.00 | 0.00 | 0.00 | 76 | 1009.8 |
| 20260507124538 | 62 | 293 | 7.0 | 7.0 | 0.00 | 0.00 | 0.00 | 77 | 1010.3 |
| 20260507124052 | 62 | 345 | 5.0 | 10.0 | 0.00 | 0.00 | 0.00 | 75 | 1009.8 |
| 20260507123550 | 62 | 306 | 6.0 | 11.0 | 0.00 | 0.00 | 0.00 | 77 | 1009.8 |
| 20260507123312 | 62 | 269 | 7.0 | 13.0 | 0.00 | 0.00 | 0.00 | 77 | 1009.9 |
| 20260507123050 | 62 | 351 | 8.0 | 14.0 | 0.00 | 0.00 | 0.00 | 76 | 1010.4 |
| 20260507122550 | 62 | 4 | 7.0 | 13.0 | 0.00 | 0.00 | 0.00 | 76 | 1009.9 |
| 20260507122052 | 63 | 353 | 5.0 | 10.0 | 0.00 | 0.00 | 0.00 | 74 | 1010.1 |
| 20260507121550 | 63 | 314 | 5.0 | 10.0 | 0.00 | 0.00 | 0.00 | 74 | 1010.1 |
| 20260507121544 | 62 | 59 | 3.0 | 7.0 | 0.00 | 0.00 | 0.00 | 93 | 1010.7 |
| 20260507121051 | 63 | 309 | 4.0 | 9.0 | 0.00 | 0.00 | 0.00 | 74 | 1010.1 |
| 20260507120550 | 64 | 1 | 3.0 | 7.0 | 0.00 | 0.00 | 0.00 | 74 | 1010.1 |
| 20260507120051 | 63 | 293 | 4.0 | 10.0 | 0.00 | 0.00 | 0.00 | 76 | 1010.2 |
| 20260507120040 | 62 | 293 | 3.0 | 7.0 | 0.00 | 0.00 | 0.00 | 75 | 1010.8 |
| 20260507115550 | 63 | 314 | 4.0 | 11.0 | 0.00 | 0.00 | 0.00 | 75 | 1010.1 |
| 20260507115051 | 63 | 323 | 4.0 | 11.0 | 0.00 | 0.00 | 0.00 | 75 | 1010.1 |
| 20260507114550 | 62 | 316 | 4.0 | 10.0 | 0.00 | 0.00 | 0.00 | 76 | 1010.2 |
| 20260507114539 | 62 | 279 | 4.0 | 6.0 | 0.00 | 0.00 | 0.00 | 93 | 1010.7 |
| 20260507114051 | 62 | 63 | 4.0 | 10.0 | 0.00 | 0.00 | 0.00 | 76 | 1010.2 |
| 20260507113550 | 62 | 310 | 4.0 | 10.0 | 0.00 | 0.00 | 0.00 | 75 | 1010.2 |
| 20260507113051 | 63 | 310 | 3.0 | 10.0 | 0.00 | 0.00 | 0.00 | 73 | 1010.2 |
| 20260507113038 | 63 | 309 | 2.0 | 8.0 | 0.00 | 0.00 | 0.00 | 73 | 1010.8 |
| 20260507112549 | 63 | 357 | 4.0 | 9.0 | 0.00 | 0.00 | 0.00 | 73 | 1010.2 |
| 20260507112050 | 64 | 245 | 3.0 | 9.0 | 0.00 | 0.00 | 0.00 | 73 | 1010.2 |
| 20260507111550 | 63 | 257 | 4.0 | 9.0 | 0.00 | 0.00 | 0.00 | 73 | 1010.1 |
| 20260507111537 | 63 | 347 | 2.0 | 4.0 | 0.00 | 0.00 | 0.00 | 71 | 1010.6 |
| 20260507111308 | 64 | 340 | 3.0 | 6.0 | 0.00 | 0.00 | 0.00 | 73 | 1010.0 |
| 20260507110548 | 63 | 306 | 3.0 | 7.0 | 0.00 | 0.00 | 0.00 | 73 | 1010.0 |
| 20260507110528 | 63 | 269 | 4.0 | 7.0 | 0.00 | 0.00 | 0.00 | 73 | 1010.0 |
| 20260507110033 | 63 | 305 | 5.0 | 9.0 | 0.00 | 0.00 | 0.00 | 71 | 1010.6 |
| 20260507105549 | 63 | 250 | 3.0 | 6.0 | 0.00 | 0.00 | 0.00 | 72 | 1010.1 |
| 20260507105050 | 62 | 324 | 3.0 | 7.0 | 0.00 | 0.00 | 0.00 | 71 | 1010.1 |
| 20260507104810 | 62 | 28 | 3.0 | 7.0 | 0.00 | 0.00 | 0.00 | 72 | 1010.1 |
| 20260507104538 | 59 | 221 | 5.0 | 5.0 | 0.00 | 0.00 | 0.00 | 73 | 1010.7 |
| 20260507104049 | 62 | 327 | 2.0 | 7.0 | 0.00 | 0.00 | 0.00 | 73 | 1010.1 |
| 20260507103548 | 62 | 1 | 4.0 | 7.0 | 0.00 | 0.00 | 0.00 | 73 | 1010.2 |
| 20260507103049 | 62 | 334 | 4.0 | 6.0 | 0.00 | 0.00 | 0.00 | 74 | 1010.2 |
| 20260507103040 | 59 | 235 | 1.0 | 2.0 | 0.00 | 0.00 | 0.00 | 73 | 1010.7 |
| 20260507102812 | 62 | 276 | 2.0 | 5.0 | 0.00 | 0.00 | 0.00 | 74 | 1010.1 |
| 20260507102050 | 61 | 20 | 1.0 | 4.0 | 0.00 | 0.00 | 0.00 | 74 | 1010.2 |
| 20260507101547 | 61 | 330 | 3.0 | 4.0 | 0.00 | 0.00 | 0.00 | 74 | 1010.2 |
| 20260507101539 | 59 | 30 | 3.0 | 5.0 | 0.00 | 0.00 | 0.00 | 94 | 1010.7 |
| 20260507101049 | 60 | 28 | 2.0 | 3.0 | 0.00 | 0.00 | 0.00 | 77 | 1010.2 |
| 20260507100547 | 60 | 178 | 1.0 | 4.0 | 0.00 | 0.00 | 0.00 | 76 | 1010.2 |
| 20260507100051 | 59 | 215 | 2.0 | 3.0 | 0.00 | 0.00 | 0.00 | 97 | 1010.8 |
| 20260507100049 | 59 | 250 | 1.0 | 5.0 | 0.00 | 0.00 | 0.00 | 77 | 1010.2 |
| 20260507095547 | 59 | 45 | 1.0 | 5.0 | 0.00 | 0.00 | 0.00 | 77 | 1010.2 |
| 20260507095048 | 58 | 11 | 3.0 | 5.0 | 0.00 | 0.00 | 0.00 | 76 | 1010.2 |
| 20260507094548 | 58 | 327 | 2.0 | 5.0 | 0.00 | 0.00 | 0.00 | 78 | 1010.2 |
| 20260507094535 | 56 | 265 | 2.0 | 3.0 | 0.00 | 0.00 | 0.00 | 78 | 1010.8 |
| 20260507094048 | 58 | 347 | 4.0 | 5.0 | 0.00 | 0.00 | 0.00 | 79 | 1010.2 |
| 20260507093546 | 58 | 334 | 3.0 | 5.0 | 0.00 | 0.00 | 0.00 | 82 | 1010.3 |
| 20260507093048 | 57 | 251 | 2.0 | 4.0 | 0.00 | 0.00 | 0.00 | 84 | 1010.3 |
| 20260507093036 | 56 | 221 | 2.0 | 3.0 | 0.00 | 0.00 | 0.00 | 100 | 1010.8 |
| 20260507092547 | 57 | 314 | 2.0 | 4.0 | 0.00 | 0.00 | 0.00 | 86 | 1010.3 |
| 20260507092048 | 56 | 338 | 2.0 | 4.0 | 0.00 | 0.00 | 0.00 | 87 | 1010.4 |
| 20260507091546 | 56 | 1 | 1.0 | 3.0 | 0.00 | 0.00 | 0.00 | 90 | 1010.4 |
| 20260507091541 | 0 | 2.0 | 2.0 | 0.00 | 0.00 | 0.00 | 1010.9 | ||
| 20260507091047 | 55 | 38 | 2.0 | 3.0 | 0.00 | 0.00 | 0.00 | 90 | 1010.4 |
| 20260507090547 | 55 | 331 | 2.0 | 3.0 | 0.00 | 0.00 | 0.00 | 93 | 1010.6 |
| 20260507090049 | 0 | 68 | 1.0 | 1.0 | 0.00 | 0.00 | 0.00 | 1011.0 | |
| 20260507085546 | 54 | 223 | 1.0 | 3.0 | 0.00 | 0.00 | 0.00 | 93 | 1010.6 |
| 20260507085318 | 54 | 306 | 2.0 | 3.0 | 0.00 | 0.00 | 0.00 | 95 | 1010.6 |
| 20260507084548 | 0 | 232 | 1.0 | 1.0 | 0.00 | 0.23 | 0.00 | 100 | 1011.2 |
| 20260507084546 | 53 | 45 | 1.0 | 2.0 | 0.00 | 0.00 | 0.00 | 95 | 1010.7 |
| 20260507084047 | 53 | 206 | 1.0 | 2.0 | 0.00 | 0.00 | 0.00 | 95 | 1010.8 |
| 20260507083545 | 52 | 303 | 2.0 | 2.0 | 0.00 | 0.00 | 0.00 | 96 | 1010.7 |
| 20260507083047 | 52 | 8 | 1.0 | 2.0 | 0.00 | 0.00 | 0.00 | 95 | 1010.7 |
| 20260507083035 | 0 | 1.0 | 0.0 | 0.00 | 0.23 | 0.00 | 1011.2 | ||
| 20260507082545 | 52 | 41 | 2.0 | 2.0 | 0.00 | 0.00 | 0.00 | 96 | 1010.7 |
| 20260507082046 | 51 | 45 | 1.0 | 2.0 | 0.00 | 0.00 | 0.00 | 96 | 1010.9 |
| 20260507081545 | 51 | 348 | 2.0 | 2.0 | 0.00 | 0.00 | 0.00 | 96 | 1010.9 |
| 20260507081536 | 51 | 61 | 1.0 | 1.0 | 0.00 | 0.23 | 0.00 | 1011.4 | |
| 20260507081311 | 51 | 178 | 1.0 | 3.0 | 0.00 | 0.00 | 0.00 | 95 | 1011.0 |
| 20260507080545 | 51 | 286 | 2.0 | 3.0 | 0.00 | 0.00 | 0.00 | 96 | 1011.0 |
| 20260507080313 | 50 | 252 | 2.0 | 2.0 | 0.00 | 0.00 | 0.00 | 96 | 1011.0 |
| 20260507075545 | 50 | 251 | 1.0 | 2.0 | 0.00 | 0.00 | 0.00 | 96 | 1011.0 |
| 20260507075312 | 50 | 286 | 1.0 | 2.0 | 0.00 | 0.00 | 0.00 | 96 | 1011.0 |
| 20260507074545 | 50 | 45 | 1.0 | 2.0 | 0.00 | 0.00 | 0.00 | 95 | 1011.0 |
| 20260507074538 | 48 | 0 | 0.0 | 2.0 | 0.00 | 0.23 | 0.00 | 100 | 1011.5 |
| 20260507074313 | 49 | 241 | 1.0 | 2.0 | 0.00 | 0.00 | 0.00 | 95 | 1011.0 |
| 20260507073546 | 49 | 269 | 1.0 | 2.0 | 0.00 | 0.00 | 0.00 | 95 | 1011.0 |
| 20260507073046 | 49 | 124 | 1.0 | 2.0 | 0.00 | 0.00 | 0.00 | 96 | 1011.1 |
| 20260507073033 | 48 | 93 | 1.0 | 2.0 | 0.00 | 0.23 | 0.00 | 100 | 1011.5 |
| 20260507072544 | 49 | 89 | 1.0 | 2.0 | 0.00 | 0.00 | 0.00 | 95 | 1011.1 |
| 20260507072045 | 49 | 117 | 1.0 | 2.0 | 0.00 | 0.00 | 0.00 | 95 | 1011.1 |
| 20260507071543 | 49 | 178 | 1.0 | 2.0 | 0.00 | 0.00 | 0.00 | 95 | 1011.1 |
| 20260507071537 | 48 | 1.0 | 2.0 | 0.00 | 0.23 | 0.00 | 100 | 1011.7 | |
| 20260507071045 | 49 | 190 | 1.0 | 2.0 | 0.00 | 0.00 | 0.00 | 95 | 1011.2 |
| 20260507070544 | 49 | 135 | 1.0 | 2.0 | 0.00 | 0.00 | 0.00 | 95 | 1011.2 |
| 20260507070046 | 48 | 223 | 1.0 | 2.0 | 0.00 | 0.00 | 0.00 | 95 | 1011.2 |
| 20260507070042 | 48 | 0 | 0.0 | 1.0 | 0.00 | 0.23 | 0.00 | 100 | 1011.7 |
| 20260507065543 | 48 | 1 | 1.0 | 2.0 | 0.00 | 0.00 | 0.00 | 95 | 1011.1 |
| 20260507065045 | 48 | 117 | 1.0 | 2.0 | 0.00 | 0.00 | 0.00 | 95 | 1011.1 |
| 20260507064600 | 47 | 0 | 0.0 | 1.0 | 0.00 | 0.23 | 0.00 | 100 | 1011.7 |
| 20260507064543 | 48 | 109 | 0.0 | 1.0 | 0.00 | 0.00 | 0.00 | 95 | 1011.1 |
| 20260507064044 | 48 | 135 | 1.0 | 1.0 | 0.00 | 0.00 | 0.00 | 95 | 1011.2 |
| 20260507063543 | 48 | 89 | 1.0 | 1.0 | 0.00 | 0.00 | 0.00 | 95 | 1011.3 |
| 20260507063044 | 48 | 104 | 0.0 | 2.0 | 0.00 | 0.00 | 0.00 | 95 | 1011.3 |
| 20260507063038 | 47 | 221 | 1.0 | 1.0 | 0.00 | 0.23 | 0.00 | 100 | 1011.9 |
| 20260507062543 | 48 | 89 | 1.0 | 2.0 | 0.00 | 0.00 | 0.00 | 95 | 1011.4 |
| 20260507062043 | 48 | 117 | 1.0 | 2.0 | 0.00 | 0.00 | 0.00 | 95 | 1011.3 |
| 20260507061542 | 48 | 178 | 1.0 | 2.0 | 0.00 | 0.00 | 0.00 | 95 | 1011.3 |
| 20260507061538 | 47 | 265 | 1.0 | 2.0 | 0.00 | 0.23 | 0.00 | 100 | 1011.9 |
| 20260507061044 | 47 | 117 | 1.0 | 2.0 | 0.00 | 0.00 | 0.00 | 95 | 1011.3 |
| 20260507060543 | 47 | 269 | 1.0 | 1.0 | 0.00 | 0.00 | 0.00 | 95 | 1011.3 |
| 20260507060044 | 47 | 109 | 0.0 | 1.0 | 0.00 | 0.00 | 0.00 | 95 | 1011.3 |
| 20260507060041 | 47 | 0 | 0.0 | 1.0 | 0.00 | 0.23 | 0.00 | 100 | 1011.8 |
| 20260507055543 | 47 | 206 | 0.0 | 2.0 | 0.00 | 0.01 | 0.00 | 95 | 1011.4 |
| 20260507055043 | 47 | 1 | 0.0 | 2.0 | 0.00 | 0.01 | 0.00 | 94 | 1011.3 |
| 20260507054542 | 47 | 269 | 1.0 | 1.0 | 0.00 | 0.01 | 0.00 | 94 | 1011.3 |
| 20260507054536 | 47 | 0 | 0.0 | 1.0 | 0.00 | 0.23 | 0.00 | 100 | 1011.9 |
| 20260507054043 | 47 | 178 | 1.0 | 1.0 | 0.00 | 0.01 | 0.00 | 95 | 1011.3 |
| 20260507053541 | 47 | 1 | 0.0 | 1.0 | 0.00 | 0.01 | 0.00 | 95 | 1011.3 |
| 20260507053042 | 47 | 178 | 0.0 | 2.0 | 0.00 | 0.01 | 0.00 | 94 | 1011.3 |
| 20260507053040 | 47 | 0 | 0.0 | 1.0 | 0.00 | 0.23 | 0.00 | 100 | 1011.7 |
| 20260507052542 | 47 | 152 | 1.0 | 2.0 | 0.00 | 0.01 | 0.00 | 94 | 1011.2 |
| 20260507052043 | 47 | 206 | 1.0 | 2.0 | 0.00 | 0.01 | 0.00 | 95 | 1011.1 |
| 20260507051551 | 47 | 22 | 1.0 | 1.0 | 0.00 | 0.23 | 0.00 | 100 | 1011.7 |
| 20260507051541 | 47 | 20 | 1.0 | 2.0 | 0.00 | 0.01 | 0.00 | 95 | 1011.2 |
| 20260507051308 | 48 | 38 | 0.0 | 1.0 | 0.00 | 0.01 | 0.00 | 95 | 1011.2 |
| 20260507050802 | 48 | 45 | 0.0 | 1.0 | 0.00 | 0.01 | 0.00 | 95 | 1011.2 |
| 20260507050044 | 47 | 193 | 1.0 | 1.0 | 0.00 | 0.23 | 0.00 | 100 | 1011.8 |
| 20260507045759 | 48 | 1 | 0.0 | 1.0 | 0.00 | 0.01 | 0.00 | 95 | 1011.4 |
| 20260507045743 | 48 | 269 | 0.0 | 1.0 | 0.00 | 0.01 | 0.00 | 94 | 1011.3 |
| 20260507044800 | 48 | 45 | 1.0 | 1.0 | 0.00 | 0.01 | 0.00 | 94 | 1011.4 |
| 20260507044535 | 47 | 0 | 1.0 | 2.0 | 0.00 | 0.23 | 0.00 | 100 | 1011.9 |
| 20260507044042 | 47 | 35 | 1.0 | 1.0 | 0.00 | 0.02 | 0.00 | 95 | 1011.4 |
| 20260507043540 | 47 | 54 | 0.0 | 1.0 | 0.00 | 0.02 | 0.00 | 94 | 1011.5 |
| 20260507043041 | 47 | 1 | 0.0 | 1.0 | 0.00 | 0.02 | 0.00 | 94 | 1011.6 |
| 20260507043033 | 0 | 0 | 0.0 | 1.0 | 0.00 | 0.23 | 0.00 | 100 | 1012.1 |
| 20260507042540 | 47 | 135 | 0.0 | 1.0 | 0.00 | 0.02 | 0.00 | 94 | 1011.6 |
| 20260507042042 | 47 | 223 | 0.0 | 1.0 | 0.00 | 0.02 | 0.00 | 94 | 1011.7 |
| 20260507041540 | 47 | 206 | 0.0 | 1.0 | 0.00 | 0.02 | 0.00 | 94 | 1011.7 |
| 20260507041536 | 0 | 0.0 | 1.0 | 0.00 | 0.23 | 0.00 | 100 | 1012.3 | |
| 20260507041041 | 47 | 269 | 0.0 | 1.0 | 0.00 | 0.02 | 0.00 | 94 | 1011.7 |
| 20260507040803 | 47 | 223 | 0.0 | 1.0 | 0.00 | 0.02 | 0.00 | 94 | 1011.8 |
| 20260507040529 | 47 | 1 | 0.0 | 2.0 | 0.00 | 0.02 | 0.00 | 94 | 1011.7 |
| 20260507040035 | 0 | 0 | 0.0 | 1.0 | 0.00 | 0.23 | 0.00 | 100 | 1012.2 |
| 20260507035540 | 47 | 178 | 1.0 | 2.0 | 0.00 | 0.02 | 0.00 | 94 | 1011.7 |
| 20260507035041 | 47 | 165 | 0.0 | 1.0 | 0.00 | 0.02 | 0.00 | 94 | 1011.7 |
| 20260507034540 | 47 | 145 | 1.0 | 1.0 | 0.00 | 0.02 | 0.00 | 94 | 1011.7 |
| 20260507034040 | 47 | 269 | 0.0 | 1.0 | 0.00 | 0.02 | 0.00 | 94 | 1011.7 |
| 20260507033539 | 47 | 161 | 0.0 | 1.0 | 0.00 | 0.02 | 0.00 | 94 | 1011.9 |
| 20260507033258 | 47 | 45 | 0.0 | 1.0 | 0.00 | 0.02 | 0.00 | 94 | 1011.9 |
| 20260507033038 | 46 | 0 | 0.0 | 0.0 | 0.00 | 0.23 | 0.00 | 100 | 1012.4 |
| 20260507032539 | 47 | 223 | 1.0 | 1.0 | 0.00 | 0.02 | 0.00 | 94 | 1011.8 |
| 20260507032040 | 47 | 223 | 0.0 | 1.0 | 0.00 | 0.02 | 0.00 | 94 | 1011.9 |
| 20260507031539 | 47 | 45 | 0.0 | 1.0 | 0.00 | 0.02 | 0.00 | 94 | 1011.8 |
| 20260507031537 | 46 | 178 | 1.0 | 1.0 | 0.00 | 0.23 | 0.00 | 100 | 1012.3 |
| 20260507031040 | 47 | 223 | 0.0 | 1.0 | 0.00 | 0.02 | 0.00 | 94 | 1011.7 |
| 20260507030531 | 47 | 45 | 1.0 | 1.0 | 0.00 | 0.02 | 0.00 | 94 | 1011.7 |
| 20260507030037 | 46 | 0 | 0.0 | 1.0 | 0.00 | 0.23 | 0.00 | 100 | 1012.3 |
| 20260507030031 | 47 | 1 | 0.0 | 1.0 | 0.00 | 0.02 | 0.00 | 93 | 1011.7 |
| 20260507025505 | 47 | 241 | 0.0 | 1.0 | 0.00 | 0.02 | 0.00 | 93 | 1011.8 |
| 20260507025003 | 47 | 178 | 0.0 | 1.0 | 0.00 | 0.02 | 0.00 | 93 | 1011.7 |
| 20260507024536 | 46 | 0 | 0.0 | 1.0 | 0.00 | 0.23 | 0.00 | 100 | 1012.3 |
| 20260507024503 | 47 | 45 | 0.0 | 1.0 | 0.00 | 0.02 | 0.00 | 93 | 1011.8 |
| 20260507024002 | 47 | 1 | 0.0 | 1.0 | 0.00 | 0.02 | 0.00 | 93 | 1011.8 |
| 20260507023503 | 47 | 1 | 0.0 | 1.0 | 0.00 | 0.02 | 0.00 | 93 | 1011.8 |
| 20260507023036 | 0 | 0.0 | 0.0 | 0.00 | 0.23 | 0.00 | 1012.4 | ||
| 20260507023002 | 47 | 269 | 0.0 | 1.0 | 0.00 | 0.02 | 0.00 | 93 | 1011.8 |
| 20260507022503 | 47 | 1 | 0.0 | 2.0 | 0.00 | 0.02 | 0.00 | 93 | 1011.9 |
| 20260507022002 | 47 | 314 | 0.0 | 2.0 | 0.00 | 0.02 | 0.00 | 93 | 1011.9 |
| 20260507021542 | 47 | 0 | 0.0 | 1.0 | 0.00 | 0.23 | 0.00 | 100 | 1012.5 |
| 20260507021503 | 47 | 161 | 0.0 | 1.0 | 0.00 | 0.02 | 0.00 | 93 | 1012.0 |
| 20260507021000 | 47 | 109 | 0.0 | 1.0 | 0.00 | 0.02 | 0.00 | 93 | 1012.1 |
| 20260507020452 | 47 | 45 | 0.0 | 2.0 | 0.00 | 0.02 | 0.00 | 93 | 1012.1 |
| 20260507020046 | 47 | 265 | 1.0 | 1.0 | 0.00 | 0.23 | 0.00 | 100 | 1012.6 |
| 20260507015953 | 48 | 45 | 0.0 | 2.0 | 0.00 | 0.02 | 0.00 | 93 | 1012.1 |
| 20260507015447 | 48 | 135 | 0.0 | 2.0 | 0.00 | 0.02 | 0.00 | 93 | 1012.1 |
| 20260507014942 | 48 | 63 | 1.0 | 2.0 | 0.00 | 0.02 | 0.00 | 93 | 1012.2 |
| 20260507014538 | 0 | 0 | 0.0 | 1.0 | 0.00 | 0.23 | 0.00 | 100 | 1012.7 |
| 20260507014443 | 48 | 45 | 0.0 | 1.0 | 0.00 | 0.02 | 0.00 | 93 | 1012.2 |
| 20260507013938 | 48 | 269 | 0.0 | 2.0 | 0.00 | 0.02 | 0.00 | 93 | 1012.2 |
| 20260507013659 | 48 | 168 | 0.0 | 2.0 | 0.00 | 0.02 | 0.00 | 93 | 1012.3 |
| 20260507013417 | 48 | 165 | 1.0 | 2.0 | 0.00 | 0.02 | 0.00 | 93 | 1012.3 |
| 20260507013033 | 0 | 0.0 | 1.0 | 0.00 | 0.23 | 0.00 | 1012.9 | ||
| 20260507012437 | 49 | 1 | 0.0 | 2.0 | 0.00 | 0.02 | 0.00 | 93 | 1012.4 |
| 20260507011936 | 49 | 168 | 2.0 | 2.0 | 0.00 | 0.02 | 0.00 | 93 | 1012.4 |
| 20260507011539 | 48 | 0.0 | 1.0 | 0.00 | 0.23 | 0.00 | 100 | 1013.0 | |
| 20260507011437 | 48 | 152 | 2.0 | 2.0 | 0.00 | 0.02 | 0.00 | 92 | 1012.5 |
| 20260507010936 | 49 | 178 | 1.0 | 2.0 | 0.00 | 0.02 | 0.00 | 92 | 1012.5 |
| 20260507010654 | 49 | 178 | 0.0 | 1.0 | 0.00 | 0.02 | 0.00 | 92 | 1012.6 |
| 20260507010057 | 0 | 0 | 0.0 | 1.0 | 0.00 | 0.23 | 0.00 | 100 | 1013.1 |
| 20260507005935 | 49 | 165 | 1.0 | 1.0 | 0.00 | 0.02 | 0.00 | 92 | 1012.6 |
| 20260507005705 | 49 | 165 | 0.0 | 1.0 | 0.00 | 0.02 | 0.00 | 92 | 1012.6 |
| 20260507004935 | 49 | 152 | 0.0 | 1.0 | 0.00 | 0.02 | 0.00 | 92 | 1012.6 |
| 20260507004538 | 0 | 0 | 0.0 | 1.0 | 0.00 | 0.23 | 0.00 | 100 | 1013.1 |
| 20260507004437 | 49 | 1 | 0.0 | 1.0 | 0.00 | 0.02 | 0.00 | 92 | 1012.6 |
| 20260507004156 | 49 | 269 | 1.0 | 1.0 | 0.00 | 0.02 | 0.00 | 92 | 1012.6 |
| 20260507003656 | 50 | 223 | 0.0 | 1.0 | 0.00 | 0.02 | 0.00 | 92 | 1012.5 |
| 20260507003200 | 50 | 45 | 0.0 | 1.0 | 0.00 | 0.02 | 0.00 | 92 | 1012.5 |
| 20260507003040 | 0 | 0 | 0.0 | 1.0 | 0.00 | 0.23 | 0.00 | 100 | 1013.1 |
| 20260507002436 | 50 | 152 | 0.0 | 1.0 | 0.00 | 0.02 | 0.00 | 92 | 1012.6 |
| 20260507001935 | 50 | 178 | 0.0 | 1.0 | 0.00 | 0.02 | 0.00 | 92 | 1012.7 |
| 20260507001540 | 0 | 0.0 | 0.0 | 0.00 | 0.23 | 0.00 | 1013.2 | ||
| 20260507001434 | 50 | 269 | 1.0 | 1.0 | 0.00 | 0.02 | 0.00 | 92 | 1012.6 |
| 20260507000935 | 50 | 152 | 1.0 | 1.0 | 0.00 | 0.02 | 0.00 | 91 | 1012.7 |
| 20260507000435 | 50 | 269 | 0.0 | 2.0 | 0.00 | 0.02 | 0.00 | 91 | 1012.7 |
| 20260507000042 | 0 | 1.0 | 1.0 | 0.00 | 0.23 | 0.00 | 100 | 1013.3 | |
| 20260506235934 | 50 | 1 | 0.0 | 2.0 | 0.00 | 0.02 | 0.00 | 91 | 1012.9 |
| 20260506235434 | 50 | 45 | 0.0 | 1.0 | 0.00 | 0.02 | 0.00 | 91 | 1012.9 |
| 20260506234934 | 51 | 161 | 0.0 | 1.0 | 0.00 | 0.02 | 0.00 | 91 | 1012.9 |
| 20260506234654 | 51 | 89 | 0.0 | 1.0 | 0.00 | 0.02 | 0.00 | 91 | 1013.0 |
| 20260506234540 | 0 | 0 | 0.0 | 0.0 | 0.00 | 0.23 | 0.00 | 1013.4 | |
| 20260506233934 | 51 | 45 | 0.0 | 2.0 | 0.00 | 0.02 | 0.00 | 91 | 1013.1 |
| 20260506233434 | 51 | 45 | 0.0 | 2.0 | 0.00 | 0.02 | 0.00 | 91 | 1013.1 |
| 20260506233038 | 51 | 158 | 1.0 | 1.0 | 0.00 | 0.23 | 0.00 | 100 | 1013.5 |
| 20260506232933 | 51 | 152 | 1.0 | 2.0 | 0.00 | 0.02 | 0.00 | 91 | 1013.1 |
| 20260506232433 | 51 | 109 | 1.0 | 2.0 | 0.00 | 0.02 | 0.00 | 91 | 1013.1 |
| 20260506231933 | 51 | 76 | 1.0 | 2.0 | 0.00 | 0.02 | 0.00 | 90 | 1013.1 |
| 20260506231551 | 0 | 51 | 0.0 | 0.0 | 0.00 | 0.23 | 0.00 | 100 | 1013.6 |
| 20260506231433 | 51 | 178 | 0.0 | 1.0 | 0.00 | 0.02 | 0.00 | 90 | 1013.1 |
| 20260506230933 | 52 | 20 | 0.0 | 1.0 | 0.00 | 0.02 | 0.00 | 90 | 1013.1 |
| 20260506230433 | 52 | 314 | 0.0 | 1.0 | 0.00 | 0.02 | 0.00 | 90 | 1013.1 |
| 20260506230157 | 52 | 45 | 0.0 | 2.0 | 0.00 | 0.02 | 0.00 | 90 | 1013.1 |
| 20260506230050 | 51 | 0.0 | 0.0 | 0.00 | 0.23 | 0.00 | 100 | 1013.6 | |
| 20260506225433 | 52 | 45 | 0.0 | 2.0 | 0.00 | 0.02 | 0.00 | 90 | 1013.1 |
| 20260506224933 | 52 | 45 | 1.0 | 1.0 | 0.00 | 0.02 | 0.00 | 89 | 1013.1 |
| 20260506224539 | 52 | 0 | 0.0 | 0.0 | 0.00 | 0.23 | 0.00 | 100 | 1013.8 |
| 20260506224433 | 52 | 45 | 0.0 | 1.0 | 0.00 | 0.02 | 0.00 | 89 | 1013.3 |
| 20260506223932 | 52 | 89 | 0.0 | 1.0 | 0.00 | 0.02 | 0.00 | 90 | 1013.3 |
| 20260506223432 | 52 | 269 | 0.0 | 1.0 | 0.00 | 0.02 | 0.00 | 90 | 1013.3 |
| 20260506223040 | 52 | 0 | 0.0 | 0.0 | 0.00 | 0.23 | 0.00 | 100 | 1013.9 |
| 20260506222933 | 52 | 45 | 0.0 | 1.0 | 0.00 | 0.02 | 0.00 | 90 | 1013.4 |
| 20260506222432 | 52 | 241 | 0.0 | 1.0 | 0.00 | 0.02 | 0.00 | 90 | 1013.6 |
| 20260506221932 | 53 | 89 | 0.0 | 1.0 | 0.00 | 0.02 | 0.00 | 89 | 1013.6 |
| 20260506221542 | 0 | 0 | 0.0 | 0.0 | 0.00 | 0.23 | 0.00 | 100 | 1014.1 |
| 20260506221432 | 53 | 314 | 0.0 | 1.0 | 0.00 | 0.02 | 0.00 | 89 | 1013.5 |
| 20260506221155 | 53 | 135 | 1.0 | 1.0 | 0.00 | 0.02 | 0.00 | 89 | 1013.8 |
| 20260506220432 | 53 | 152 | 0.0 | 2.0 | 0.00 | 0.02 | 0.00 | 89 | 1013.8 |
| 20260506220045 | 0 | 0 | 0.0 | 1.0 | 0.00 | 0.23 | 0.00 | 100 | 1014.3 |
| 20260506215932 | 53 | 157 | 1.0 | 2.0 | 0.00 | 0.02 | 0.02 | 88 | 1013.8 |
| 20260506215431 | 53 | 152 | 0.0 | 1.0 | 0.00 | 0.02 | 0.02 | 88 | 1013.9 |
| 20260506215150 | 53 | 161 | 0.0 | 1.0 | 0.00 | 0.02 | 0.02 | 88 | 1013.9 |
| 20260506214701 | 53 | 178 | 0.0 | 1.0 | 0.00 | 0.02 | 0.02 | 88 | 1013.8 |
| 20260506214538 | 0 | 0.0 | 1.0 | 0.00 | 0.23 | 0.23 | 1014.3 | ||
| 20260506213932 | 54 | 1 | 0.0 | 1.0 | 0.00 | 0.02 | 0.02 | 88 | 1013.9 |
| 20260506213431 | 54 | 45 | 0.0 | 1.0 | 0.00 | 0.02 | 0.02 | 88 | 1013.8 |
| 20260506213040 | 0 | 0.0 | 0.0 | 0.00 | 0.23 | 0.23 | 1014.3 | ||
| 20260506212931 | 54 | 269 | 0.0 | 1.0 | 0.00 | 0.02 | 0.02 | 87 | 1013.9 |
| 20260506212653 | 54 | 1 | 0.0 | 1.0 | 0.00 | 0.02 | 0.02 | 87 | 1013.9 |
| 20260506211931 | 54 | 45 | 0.0 | 1.0 | 0.00 | 0.02 | 0.02 | 87 | 1013.8 |
| 20260506211537 | 54 | 0 | 0.0 | 0.0 | 0.00 | 0.23 | 0.23 | 100 | 1014.3 |
| 20260506211431 | 54 | 1 | 0.0 | 2.0 | 0.00 | 0.02 | 0.02 | 87 | 1013.8 |
| 20260506210931 | 54 | 1 | 1.0 | 2.0 | 0.00 | 0.02 | 0.02 | 87 | 1013.8 |
| 20260506210431 | 54 | 314 | 0.0 | 1.0 | 0.00 | 0.02 | 0.02 | 87 | 1013.9 |
| 20260506210052 | 54 | 9 | 1.0 | 1.0 | 0.00 | 0.23 | 0.23 | 100 | 1014.3 |
| 20260506205931 | 54 | 1 | 0.0 | 1.0 | 0.00 | 0.02 | 0.02 | 87 | 1013.8 |
| 20260506205431 | 55 | 1 | 1.0 | 1.0 | 0.00 | 0.02 | 0.02 | 87 | 1013.9 |
| 20260506204931 | 55 | 45 | 0.0 | 2.0 | 0.00 | 0.02 | 0.02 | 87 | 1013.9 |
| 20260506204538 | 54 | 0 | 0.0 | 1.0 | 0.00 | 0.23 | 0.23 | 100 | 1014.4 |
| 20260506204430 | 55 | 45 | 0.0 | 2.0 | 0.00 | 0.02 | 0.02 | 87 | 1013.9 |
| 20260506203931 | 55 | 269 | 0.0 | 2.0 | 0.00 | 0.02 | 0.02 | 87 | 1013.9 |
| 20260506203430 | 55 | 1 | 1.0 | 2.0 | 0.00 | 0.02 | 0.02 | 87 | 1013.8 |
| 20260506203037 | 55 | 9 | 0.0 | 1.0 | 0.00 | 0.23 | 0.23 | 100 | 1014.3 |
| 20260506202931 | 55 | 45 | 1.0 | 2.0 | 0.00 | 0.02 | 0.02 | 87 | 1013.8 |
| 20260506202429 | 55 | 1 | 1.0 | 2.0 | 0.00 | 0.02 | 0.02 | 87 | 1013.8 |
| 20260506201931 | 55 | 28 | 1.0 | 2.0 | 0.00 | 0.02 | 0.02 | 87 | 1013.6 |
| 20260506201539 | 55 | 1.0 | 2.0 | 0.00 | 0.23 | 0.23 | 100 | 1014.1 | |
| 20260506201430 | 55 | 20 | 1.0 | 3.0 | 0.00 | 0.02 | 0.02 | 87 | 1013.6 |
| 20260506201153 | 55 | 20 | 2.0 | 3.0 | 0.00 | 0.02 | 0.02 | 86 | 1013.5 |
| 20260506200429 | 55 | 23 | 1.0 | 2.0 | 0.00 | 0.02 | 0.02 | 86 | 1013.5 |
| 20260506200037 | 55 | 30 | 2.0 | 2.0 | 0.00 | 0.23 | 0.23 | 100 | 1014.1 |
| 20260506195930 | 55 | 20 | 1.0 | 2.0 | 0.00 | 0.02 | 0.02 | 86 | 1013.5 |
| 20260506195429 | 55 | 1 | 1.0 | 2.0 | 0.00 | 0.02 | 0.02 | 86 | 1013.6 |
| 20260506194930 | 55 | 10 | 1.0 | 2.0 | 0.00 | 0.02 | 0.02 | 85 | 1013.6 |
| 20260506194540 | 55 | 24 | 1.0 | 2.0 | 0.00 | 0.23 | 0.23 | 100 | 1014.2 |
| 20260506194429 | 55 | 10 | 2.0 | 2.0 | 0.00 | 0.02 | 0.02 | 85 | 1013.8 |